Location: Kosice
(48.7170°N, 21.2500°E)
Time: 12:26:10
(UTC+02:00)

ISS - Pass Details

Date: 29 March 2019
Orbit: 408 x 410 km, 51.6° (Epoch: 25 April)

Event Time Altitude Azimuth Distance (km) Brightness Sun altitude
Rises 18:28:42 0° 263° (W) 2,334 1.7 -5.4°
Reaches altitude 10° 18:30:48 10° 267° (W) 1,473 0.6 -5.7°
Maximum altitude 18:34:04 59° 348° (NNW) 480 -3.3 -6.3°
Drops below altitude 10° 18:37:20 10° 69° (ENE) 1,475 -1.5 -6.8°
Enters shadow 18:38:09 - 71° (ENE) 1,801 -1.1 -6.9°
